Tracking 25995 objects as of 20-Aug-2022
HD Live streaming from Space Station
objects crossing your sky now

THOR ABLESTAR DEB

Track THOR ABLESTAR DEB now!
10-day predictions


NORAD ID: 548
Int'l Code: 1961-015GH
Perigee: 607.0 km
Apogee: 758.6 km
Inclination: 66.7 °
Period: 98.3 minutes
Semi major axis: 7053 km
RCS: 0.028 m2 (small)
Launch date: June 29, 1961
Source: United States (US)
Launch site: AIR FORCE EASTERN TEST RANGE (AFETR)

Note: This is SATELLITE DEBRIS
aabbcc
Your satellite tracking list
Your tracking list is empty




NASA's NSSDC Master Catalog

Two Line Element Set (TLE):
1 00548U 61015GH  22231.43852685  .00000728  00000-0  14315-3 0  9995
2 00548  66.6721 253.4761 0107471 108.5806 252.7019 14.65441870198322
Source of the keplerian elements: AFSPC